Погода в Левкове

Украина / Житомирская область     50°14′24″N   28°49′55″E
темп.,
°C
ветер,
м/с
пор.,
м/с
влажн.,
%
обл.,
%
осадки,
мм/ч
давл.,
гПа
погр.,
м
4 августа, ср
ср400:00+16сз22620 0.0 101614
03:00+14юз016511 0.0 101711
06:00+14ссв1168100 0.0 101710
09:00+20вюв235297 0.0 1018362
12:00+24ю3544100 0.0 10171612
15:00+26ю5541100 0.0 10152528
18:00+22юв365787 0.0 1014142
21:00+17с1395100 7.3 101575
5 августа, чт
чт500:00+16юв489692 4.4 1016210
03:00+15ю2296100 4.4 101442
06:00+15ююз3694100 0.0 1013115
09:00+20ююв3482100 0.0 1012323
12:00+25ююв456020 0.0 1011950
15:00+28ю555395 0.0 10101592
18:00+28ю465312 0.0 10081740
21:00+23юв477430 0.0 1006101
6 августа, пт
пт600:00+20юз51285100 1.4 1007332
03:00+19ююв8179099 9.3 1004624
06:00+18ю5139332 0.0 1003488
09:00+21ю4789100 0.8 1004549
12:00+22ююз468592 0.6 1004566
15:00+24ю4675100 2.5 1004892
18:00+21ююз5989100 6.6 1004318
21:00+19сз3789100 6.8 1005142
7 августа, сб
сб700:00+17сз0296100 2.1 100758
03:00+15сз4893100 4.2 1008383
06:00+12зсз379611 0.0 1009268
09:00+16зсз678051 0.0 1010694
12:00+19зсз576319 0.0 10111086
15:00+22сз67482 0.0 10111414
18:00+22сз46510 0.0 10121470
21:00+16зсз33680 0.0 101422
8 августа, вс
вс800:00+14зсз33730 0.0 101534
03:00+13сз22750 0.0 101610
06:00+13зюз11750 0.0 101610
09:00+18зсз11595 0.0 1016239
12:00+24з114752 0.0 1016952
15:00+25з22435 0.0 10161397
18:00+26зсз01440 0.0 10161457
21:00+20вюв22610 0.0 101711